FW2996 Weather Reports


Display with metric or nautical units.
time (UTC)temp
F
wind
direction
speed
MPH
gust
MPH
rain 1hr
in
rain 24hr
in
rain mn
in
humidity
%
barometer
mb
20190221135625 48 23 0.0 0.0 0.00 0.00 0.00 76 1015.2
20190221135115 48 23 0.0 0.0 0.00 0.00 0.00 76 1015.2
20190221134623 48 45 0.0 0.0 0.00 0.00 0.00 76 1015.2
20190221134115 48 23 0.0 0.0 0.00 0.00 0.00 79 1015.2
20190221133636 47 90 1.0 0.0 0.00 0.00 0.00 78 1015.2
20190221133150 47 113 2.0 0.0 0.00 0.00 0.00 78 1015.2
20190221132616 47 203 2.0 0.0 0.00 0.00 0.00 78 1015.2
20190221132122 47 45 1.0 0.0 0.00 0.00 0.00 79 1015.2
20190221131619 47 23 0.0 0.0 0.00 0.00 0.00 79 1014.9
20190221131118 47 68 0.0 0.0 0.00 0.00 0.00 79 1015.2
20190221130618 47 135 0.0 0.0 0.00 0.00 0.00 79 1015.2
20190221130109 46 23 1.0 0.0 0.00 0.00 0.00 80 1014.9
20190221125622 46 45 0.0 0.0 0.00 0.00 0.00 80 1014.9
20190221125112 46 113 0.0 0.0 0.00 0.00 0.00 80 1014.9
20190221124620 46 113 0.0 0.0 0.00 0.00 0.00 80 1014.9
20190221124115 46 135 0.0 0.0 0.00 0.00 0.00 80 1014.9
20190221123623 46 135 0.0 0.0 0.00 0.00 0.00 80 1014.9
20190221123109 46 135 0.0 0.0 0.00 0.00 0.00 80 1014.9
20190221122614 46 203 0.0 0.0 0.00 0.00 0.00 81 1014.9
20190221122116 46 113 0.0 0.0 0.00 0.00 0.00 80 1014.9
20190221121619 46 203 0.0 0.0 0.00 0.00 0.00 80 1015.2
20190221121117 46 113 0.0 0.0 0.00 0.00 0.00 80 1014.9
20190221120612 46 203 0.0 0.0 0.00 0.00 0.00 81 1014.9
20190221120129 46 135 0.0 0.0 0.00 0.00 0.00 81 1014.9
20190221115615 46 158 2.0 0.0 0.00 0.00 0.00 83 1014.9
20190221115119 46 180 1.0 0.0 0.00 0.00 0.00 83 1014.9
20190221114609 46 158 2.0 0.0 0.00 0.00 0.00 83 1014.6
20190221114116 46 113 2.0 0.0 0.00 0.00 0.00 81 1014.6
20190221113604 46 135 2.0 0.0 0.00 0.00 0.00 81 1014.9
20190221113107 46 158 2.0 0.0 0.00 0.00 0.00 83 1014.9
20190221112622 46 203 0.0 0.0 0.00 0.00 0.00 85 1014.9
20190221112121 46 135 0.0 0.0 0.00 0.00 0.00 86 1014.6
20190221111615 46 135 0.0 0.0 0.00 0.00 0.00 86 1014.6
20190221111118 46 68 0.0 0.0 0.00 0.00 0.00 81 1014.6
20190221110618 45 180 0.0 0.0 0.00 0.00 0.00 85 1014.9
20190221110140 45 135 0.0 0.0 0.00 0.00 0.00 86 1014.6
20190221105603 45 180 0.0 0.0 0.00 0.00 0.00 86 1014.9
20190221105123 46 135 0.0 0.0 0.00 0.00 0.00 88 1014.9
20190221104629 45 45 0.0 0.0 0.00 0.00 0.00 83 1014.6
20190221104106 45 113 0.0 0.0 0.00 0.00 0.00 81 1014.9
20190221103605 45 293 0.0 0.0 0.00 0.00 0.00 83 1014.9
20190221103122 45 23 0.0 0.0 0.00 0.00 0.00 81 1014.9
20190221102613 45 270 0.0 0.0 0.00 0.00 0.00 80 1014.9
20190221102109 45 248 0.0 0.0 0.00 0.00 0.00 81 1014.9
20190221101610 45 248 0.0 0.0 0.00 0.00 0.00 83 1014.9
20190221101106 44 293 0.0 0.0 0.00 0.00 0.00 81 1015.2
20190221100607 44 338 0.0 0.0 0.00 0.00 0.00 83 1015.2
20190221100131 44 270 0.0 0.0 0.00 0.00 0.00 86 1014.9
20190221095607 44 248 0.0 0.0 0.00 0.00 0.00 86 1015.2
20190221095105 43 338 0.0 0.0 0.00 0.00 0.00 86 1014.9
20190221094606 43 225 0.0 0.0 0.00 0.00 0.00 86 1015.2
20190221094105 43 23 0.0 0.0 0.00 0.00 0.00 86 1015.6
20190221093605 43 248 0.0 0.0 0.00 0.00 0.00 86 1015.2
20190221093117 43 248 0.0 0.0 0.00 0.00 0.00 86 1015.9
20190221092614 43 248 0.0 0.0 0.00 0.00 0.00 86 1015.9
20190221092113 43 23 0.0 0.0 0.00 0.00 0.00 86 1015.6
20190221091613 43 338 0.0 0.0 0.00 0.00 0.00 86 1015.9
20190221091109 43 248 0.0 0.0 0.00 0.00 0.00 85 1015.9
20190221090607 42 338 0.0 0.0 0.00 0.00 0.00 85 1015.6
20190221090129 42 293 0.0 0.0 0.00 0.00 0.00 85 1015.9
20190221085612 42 315 0.0 0.0 0.00 0.00 0.00 86 1015.6
20190221085115 42 225 0.0 0.0 0.00 0.00 0.00 86 1015.9
20190221084612 42 338 0.0 0.0 0.00 0.00 0.00 85 1015.6
20190221084113 42 23 0.0 0.0 0.00 0.00 0.00 86 1015.6
20190221083618 42 338 0.0 0.0 0.00 0.00 0.00 86 1015.9
20190221083118 42 270 0.0 0.0 0.00 0.00 0.00 86 1015.9
20190221082615 42 338 0.0 0.0 0.00 0.00 0.00 86 1015.9
20190221082118 42 315 0.0 0.0 0.00 0.00 0.00 86 1016.3
20190221081632 42 158 0.0 0.0 0.00 0.00 0.00 85 1016.3
20190221081119 41 270 0.0 0.0 0.00 0.00 0.00 86 1015.9
20190221080626 41 225 0.0 0.0 0.00 0.00 0.00 86 1016.3
20190221080137 41 23 0.0 0.0 0.00 0.00 0.00 86 1015.9
20190221075619 41 248 0.0 0.0 0.00 0.00 0.00 86 1016.3
20190221075124 41 338 0.0 0.0 0.00 0.00 0.00 86 1015.9
20190221074618 41 23 0.0 0.0 0.00 0.00 0.00 86 1015.9
20190221074122 41 338 0.0 0.0 0.00 0.00 0.00 88 1016.3
20190221073624 41 0 0.0 0.0 0.00 0.00 0.00 86 1016.3
20190221073120 41 203 0.0 0.0 0.00 0.00 0.00 86 1016.3
20190221072620 41 0 0.0 0.0 0.00 0.00 0.00 86 1015.9
20190221072123 40 293 0.0 0.0 0.00 0.00 0.00 86 1016.6
20190221071634 40 270 0.0 0.0 0.00 0.00 0.00 86 1016.3
20190221071121 40 0 0.0 0.0 0.00 0.00 0.00 86 1016.3
20190221070622 40 203 0.0 0.0 0.00 0.00 0.00 86 1015.9
20190221070150 40 293 0.0 0.0 0.00 0.00 0.00 86 1016.3
20190221065622 40 315 0.0 0.0 0.00 0.00 0.00 86 1015.9
20190221065130 40 270 0.0 0.0 0.00 0.00 0.00 88 1016.3
20190221064624 40 338 0.0 0.0 0.00 0.00 0.00 88 1016.3
20190221064119 40 90 0.0 0.0 0.00 0.00 0.00 88 1015.9
20190221063652 40 0 0.0 0.0 0.00 0.00 0.00 88 1015.9
20190221063145 40 23 0.0 0.0 0.00 0.00 0.00 88 1016.3
20190221062623 40 338 0.0 0.0 0.00 0.00 0.00 88 1016.3
20190221062126 40 23 0.0 0.0 0.00 0.00 0.00 88 1015.9
20190221061650 40 113 0.0 0.0 0.00 0.00 0.00 88 1015.9
20190221061124 39 113 0.0 0.0 0.00 0.00 0.00 88 1016.3
20190221060626 39 270 0.0 0.0 0.00 0.00 0.00 90 1016.3
20190221060134 39 338 0.0 0.0 0.00 0.00 0.00 90 1016.3
20190221055622 39 0 0.0 0.0 0.00 0.00 0.00 90 1015.9
20190221055127 38 0 0.0 0.0 0.00 0.00 0.00 90 1016.3
20190221054655 39 0 0.0 0.0 0.00 0.00 0.00 88 1016.3
20190221054127 40 180 0.0 0.0 0.00 0.00 0.00 86 1016.3
20190221053653 40 135 0.0 0.0 0.00 0.00 0.00 86 1016.3
20190221053140 40 158 0.0 0.0 0.00 0.00 0.00 86 1016.3
20190221052625 39 113 0.0 0.0 0.00 0.00 0.00 90 1016.3
20190221052130 38 225 0.0 0.0 0.00 0.00 0.00 91 1015.9
20190221051642 38 338 0.0 0.0 0.00 0.00 0.00 91 1015.9
20190221051139 38 0 0.0 0.0 0.00 0.00 0.00 91 1015.9
20190221050644 39 225 0.0 0.0 0.00 0.00 0.00 91 1016.3
20190221050137 38 0 0.0 0.0 0.00 0.00 0.00 91 1015.9
20190221045642 38 338 0.0 0.0 0.00 0.00 0.00 88 1015.9
20190221045146 39 113 0.0 0.0 0.00 0.00 0.00 88 1015.9
20190221044650 39 0 0.0 0.0 0.00 0.00 0.00 88 1016.3
20190221044148 39 113 0.0 0.0 0.00 0.00 0.00 86 1016.3
20190221043642 39 113 0.0 0.0 0.00 0.01 0.00 86 1015.9
20190221043143 40 113 0.0 0.0 0.00 0.01 0.00 86 1015.9
20190221042641 40 248 0.0 0.0 0.00 0.01 0.00 86 1015.9
20190221042137 40 23 0.0 0.0 0.00 0.01 0.00 86 1015.6
20190221041638 40 248 0.0 0.0 0.00 0.01 0.00 85 1015.2
20190221041138 40 248 0.0 0.0 0.00 0.01 0.00 86 1015.2
20190221040645 40 248 0.0 0.0 0.00 0.01 0.00 86 1015.2
20190221040131 40 270 0.0 0.0 0.00 0.01 0.00 85 1014.9
20190221035635 41 180 0.0 0.0 0.00 0.01 0.00 85 1014.9
20190221035136 41 293 0.0 0.0 0.00 0.01 0.00 83 1015.2
20190221034644 41 293 0.0 0.0 0.00 0.01 0.00 83 1015.2
20190221034141 41 315 0.0 0.0 0.00 0.01 0.00 83 1015.6
20190221033643 42 270 0.0 0.0 0.00 0.01 0.00 81 1015.6
20190221033140 42 338 2.0 0.0 0.00 0.01 0.00 81 1015.2
20190221032637 42 0 0.0 0.0 0.00 0.01 0.00 80 1015.2
20190221032137 43 270 0.0 0.0 0.00 0.02 0.00 79 1015.6
20190221031643 43 315 0.0 0.0 0.00 0.02 0.00 76 1015.6
20190221031140 43 203 0.0 0.0 0.00 0.02 0.00 78 1015.9
20190221030652 44 158 0.0 0.0 0.00 0.02 0.00 80 1015.6
20190221030130 45 0 0.0 0.0 0.00 0.02 0.00 70 1015.6
20190221025634 45 270 0.0 0.0 0.00 0.02 0.00 70 1015.6
20190221025138 46 315 0.0 0.0 0.00 0.02 0.00 70 1015.6
20190221024632 46 203 2.0 0.0 0.00 0.02 0.00 70 1015.6
20190221024132 46 23 1.0 0.0 0.00 0.02 0.00 69 1015.2
20190221023646 46 23 4.0 0.0 0.00 0.02 0.00 70 1015.2
20190221023133 45 293 0.0 0.0 0.00 0.02 0.00 70 1015.2
20190221022638 45 270 0.0 0.0 0.00 0.02 0.00 70 1015.6
20190221022138 44 293 2.0 0.0 0.00 0.02 0.00 71 1015.2
20190221021638 44 338 0.0 0.0 0.00 0.02 0.00 73 1015.6
20190221021140 44 270 0.0 0.0 0.00 0.02 0.00 70 1015.2
20190221020634 44 338 0.0 0.0 0.00 0.02 0.00 70 1015.2
20190221020130 45 0 0.0 0.0 0.00 0.02 0.00 70 1015.2
20190221015638 46 180 0.0 0.0 0.00 0.02 0.00 69 1015.2
20190221015139 46 113 0.0 0.0 0.00 0.02 0.00 68 1015.2
20190221014638 46 225 0.0 0.0 0.00 0.02 0.00 68 1014.9
20190221014141 46 248 0.0 0.0 0.00 0.02 0.00 68 1014.9
20190221013643 46 248 0.0 0.0 0.00 0.02 0.00 68 1015.2
20190221013135 47 23 0.0 0.0 0.00 0.02 0.00 66 1014.9
20190221012637 47 270 0.0 0.0 0.00 0.02 0.00 63 1015.2
20190221012138 47 270 0.0 0.0 0.00 0.02 0.00 63 1014.6
20190221011636 48 315 0.0 0.0 0.00 0.02 0.00 63 1014.6
20190221011133 48 270 0.0 0.0 0.00 0.02 0.00 63 1014.9
20190221010638 49 270 0.0 0.0 0.00 0.02 0.00 63 1014.9
20190221010125 49 23 0.0 0.0 0.00 0.02 0.00 63 1014.6
20190221005634 50 225 0.0 0.0 0.00 0.02 0.00 59 1014.9
20190221005135 51 315 0.0 0.0 0.00 0.02 0.00 58 1014.6
20190221004635 51 248 0.0 0.0 0.00 0.02 0.00 56 1014.9
20190221004132 52 248 0.0 0.0 0.00 0.02 0.00 54 1014.6
20190221003647 53 248 0.0 0.0 0.00 0.02 0.00 53 1014.6
20190221003139 54 338 0.0 0.0 0.00 0.02 0.00 51 1014.6
20190221002640 55 338 0.0 0.0 0.00 0.02 0.00 50 1014.9
20190221002133 56 270 0.0 0.0 0.00 0.02 0.00 46 1014.9
20190221001635 57 225 0.0 0.0 0.00 0.02 0.00 46 1014.6
20190221001134 57 203 0.0 0.0 0.00 0.02 0.00 45 1014.6
20190221000637 59 135 0.0 0.0 0.00 0.02 0.00 40 1014.6
20190221000127 60 158 0.0 0.0 0.00 0.26 0.00 39 1014.6
20190220235631 61 113 3.0 0.0 0.00 0.26 0.00 34 1014.6
20190220235138 62 68 4.0 0.0 0.00 0.26 0.00 34 1014.2
20190220234641 60 68 2.0 0.0 0.00 0.26 0.00 34 1014.6
20190220234134 60 180 2.0 0.0 0.00 0.26 0.00 35 1014.2
20190220233643 60 158 6.0 0.0 0.00 0.26 0.00 34 1014.6
20190220233131 61 135 0.0 0.0 0.00 0.26 0.00 31 1014.2
20190220232639 61 90 3.0 0.0 0.00 0.26 0.00 31 1014.2
20190220232137 61 45 2.0 0.0 0.00 0.26 0.00 31 1014.2
20190220231636 61 90 3.0 0.0 0.00 0.26 0.00 31 1013.9
20190220231136 62 113 3.0 0.0 0.00 0.26 0.00 31 1014.2
20190220230702 62 45 0.0 0.0 0.00 0.26 0.00 32 1014.2
20190220230136 62 180 2.0 0.0 0.00 0.26 0.00 30 1014.2
20190220225636 62 113 3.0 0.0 0.00 0.26 0.00 31 1014.2
20190220225132 62 45 3.0 0.0 0.00 0.27 0.00 31 1014.2
20190220224632 63 90 4.0 0.0 0.00 0.27 0.00 30 1014.2
20190220224132 63 180 1.0 0.0 0.00 0.27 0.00 29 1014.2
20190220223627 64 113 1.0 0.0 0.00 0.27 0.00 29 1014.2
20190220223132 63 270 2.0 0.0 0.00 0.27 0.00 29 1014.6
20190220222631 64 113 2.0 0.0 0.00 0.27 0.00 30 1014.6
20190220222137 65 135 3.0 0.0 0.00 0.27 0.00 29 1014.6
20190220221635 65 315 0.0 0.0 0.00 0.27 0.00 29 1014.6
20190220221131 64 203 0.0 0.0 0.00 0.27 0.00 31 1014.6
20190220220633 64 113 0.0 0.0 0.00 0.27 0.00 29 1014.6
20190220220128 62 135 2.0 0.0 0.00 0.27 0.00 30 1014.6
20190220215631 63 113 2.0 0.0 0.00 0.27 0.00 29 1014.6
20190220215138 64 90 2.0 0.0 0.00 0.27 0.00 30 1014.6
20190220214632 63 315 0.0 0.0 0.00 0.28 0.00 29 1014.6
20190220214131 63 113 3.0 0.0 0.00 0.28 0.00 30 1014.6
20190220213636 64 23 4.0 0.0 0.00 0.28 0.00 30 1014.6
20190220213129 64 248 0.0 0.0 0.00 0.28 0.00 31 1014.6
20190220212628 63 68 2.0 0.0 0.00 0.29 0.00 31 1014.6
20190220212126 63 45 2.0 0.0 0.00 0.30 0.00 32 1014.2
20190220211633 63 23 1.0 0.0 0.00 0.32 0.00 32 1014.6
20190220211135 63 23 3.0 0.0 0.00 0.32 0.00 31 1014.9
20190220210703 63 23 3.0 0.0 0.00 0.32 0.00 32 1014.6
20190220210131 63 45 2.0 0.0 0.00 0.32 0.00 32 1014.6
20190220205639 63 23 4.0 0.0 0.00 0.32 0.00 32 1014.6
20190220205135 62 158 4.0 0.0 0.00 0.32 0.00 30 1014.6
20190220204631 63 293 2.0 0.0 0.00 0.32 0.00 30 1014.9
20190220204134 62 45 2.0 0.0 0.00 0.32 0.00 31 1014.9
20190220203641 63 0 0.0 0.0 0.00 0.32 0.00 34 1014.9
20190220203130 62 338 0.0 0.0 0.00 0.32 0.00 31 1014.9
20190220202634 63 0 1.0 0.0 0.00 0.32 0.00 31 1015.2
20190220202135 62 315 1.0 0.0 0.00 0.32 0.00 32 1014.9
20190220201631 62 315 3.0 0.0 0.00 0.32 0.00 32 1014.9
20190220201129 62 23 5.0 0.0 0.00 0.32 0.00 31 1015.2
20190220200644 62 23 2.0 0.0 0.00 0.32 0.00 29 1015.2
20190220200122 62 338 3.0 0.0 0.00 0.32 0.00 34 1015.2
20190220195635 62 225 1.0 0.0 0.00 0.32 0.00 32 1015.2
20190220195135 62 0 6.0 0.0 0.00 0.32 0.00 35 1015.6
20190220194633 62 270 2.0 0.0 0.00 0.32 0.00 34 1015.9
20190220194137 61 270 3.0 0.0 0.00 0.32 0.00 35 1015.9
20190220193634 61 225 0.0 0.0 0.00 0.32 0.00 35 1015.9
20190220193134 60 45 1.0 0.0 0.00 0.32 0.00 35 1016.3
20190220192635 61 45 0.0 0.0 0.00 0.32 0.00 40 1016.3
20190220192137 60 135 3.0 0.0 0.00 0.32 0.00 40 1016.3
20190220191633 59 23 2.0 0.0 0.00 0.32 0.00 37 1016.3
20190220191131 60 23 4.0 0.0 0.00 0.32 0.00 37 1016.3
20190220190626 60 315 1.0 0.0 0.00 0.33 0.00 39 1016.6
20190220190130 59 45 2.0 0.0 0.00 0.33 0.00 40 1016.6
20190220185634 59 23 3.0 0.0 0.00 0.33 0.00 37 1016.6
20190220185136 59 225 1.0 0.0 0.00 0.34 0.00 40 1016.6
20190220184710 59 0 8.0 0.0 0.00 0.34 0.00 37 1016.9
20190220184128 59 23 4.0 0.0 0.00 0.38 0.00 43 1016.9
20190220183638 58 23 2.0 0.0 0.00 0.38 0.00 44 1016.9
20190220183134 58 23 2.0 0.0 0.00 0.38 0.00 41 1017.3
20190220182631 58 23 3.0 0.0 0.00 0.39 0.00 44 1017.3
20190220182131 57 45 3.0 0.0 0.00 0.40 0.00 44 1016.9
20190220181629 57 23 5.0 0.0 0.00 0.40 0.00 44 1017.3
20190220181131 57 315 3.0 0.0 0.00 0.40 0.00 46 1017.3
20190220180633 58 23 2.0 0.0 0.00 0.40 0.00 49 1017.6
20190220180129 57 45 5.0 0.0 0.00 0.40 0.00 50 1017.6
20190220175628 56 45 5.0 0.0 0.00 0.40 0.00 50 1017.6
20190220175132 56 23 3.0 0.0 0.00 0.40 0.00 51 1017.6
20190220174630 55 45 6.0 0.0 0.00 0.40 0.00 53 1017.6
20190220174126 55 23 3.0 0.0 0.00 0.40 0.00 55 1017.6
20190220173647 55 45 4.0 0.0 0.00 0.41 0.00 55 1017.9
20190220173132 54 23 3.0 0.0 0.00 0.43 0.00 55 1017.9
20190220172624 54 45 4.0 0.0 0.00 0.44 0.00 55 1017.9
20190220172127 54 315 3.0 0.0 0.00 0.45 0.00 55 1017.6
20190220171629 54 293 3.0 0.0 0.00 0.48 0.00 59 1017.9
20190220171131 54 0 8.0 0.0 0.00 0.48 0.00 61 1017.9
20190220170627 53 270 3.0 0.0 0.00 0.48 0.00 63 1017.9
20190220170131 52 315 3.0 0.0 0.00 0.48 0.00 63 1018.3
20190220165631 51 23 4.0 0.0 0.00 0.48 0.00 65 1018.3
20190220165126 51 23 4.0 0.0 0.00 0.48 0.00 65 1018.3
20190220164630 51 338 2.0 0.0 0.00 0.49 0.00 65 1018.6
20190220164123 50 293 1.0 0.0 0.00 0.49 0.00 66 1018.3
20190220163635 49 45 0.0 0.0 0.00 0.49 0.00 69 1018.3
20190220163124 49 293 4.0 0.0 0.00 0.49 0.00 69 1018.3
20190220162630 48 315 4.0 0.0 0.00 0.49 0.00 70 1018.3
20190220162129 48 0 2.0 0.0 0.00 0.49 0.00 73 1018.3
20190220161630 47 23 0.0 0.0 0.00 0.49 0.00 76 1018.3
20190220161128 46 113 1.0 0.0 0.00 0.50 0.00 79 1018.3
20190220160630 46 0 0.0 0.0 0.00 0.50 0.00 81 1018.3
20190220160121 46 23 2.0 0.0 0.00 0.50 0.00 79 1018.3
20190220155628 46 0 0.0 0.0 0.00 0.50 0.00 83 1018.3
20190220155121 44 338 2.0 0.0 0.00 0.50 0.00 83 1018.3
20190220154628 43 0 2.0 0.0 0.00 0.50 0.00 86 1018.3
20190220154125 42 45 1.0 0.0 0.00 0.50 0.00 86 1018.3
20190220153618 42 45 0.0 0.0 0.00 0.50 0.00 88 1018.3
20190220153147 42 23 0.0 0.0 0.00 0.50 0.00 88 1018.3
20190220152657 41 23 1.0 0.0 0.00 0.50 0.00 88 1018.3
20190220152126 42 45 2.0 0.0 0.00 0.50 0.00 88 1018.3
20190220151618 43 23 1.0 0.0 0.00 0.50 0.00 86 1018.3
20190220151126 42 293 2.0 0.0 0.00 0.50 0.00 88 1018.3
20190220150628 41 293 1.0 0.0 0.00 0.50 0.00 91 1018.6
20190220150111 41 248 3.0 0.0 0.00 0.50 0.00 93 1018.3
20190220145624 40 23 2.0 0.0 0.00 0.50 0.00 93 1018.3
20190220145112 41 0 3.0 0.0 0.00 0.50 0.00 93 1018.3
20190220144654 41 68 1.0 0.0 0.00 0.50 0.00 93 1018.3
20190220144123 39 23 4.0 0.0 0.00 0.50 0.00 96 1017.9
20190220143622 39 23 5.0 0.0 0.00 0.50 0.00 96 1017.9
20190220143115 39 23 2.0 0.0 0.00 0.50 0.00 98 1017.9
20190220142619 39 23 3.0 0.0 0.00 0.50 0.00 98 1017.9
20190220142154 39 338 2.0 0.0 0.00 0.50 0.00 98 1017.9
20190220141616 39 23 2.0 0.0 0.00 0.50 0.00 98 1017.9
20190220141116 38 0 4.0 0.0 0.00 0.50 0.00 98 1017.9
20190220140624 38 23 0.0 0.0 0.00 0.50 0.00 98 1017.6
20190220140108 38 23 2.0 0.0 0.00 0.50 0.00 98 1017.9